This is the latest recevied weather packets stored in our database for station/object KB3GVC-13. If no packets are shown the sender has not sent any weather packets the latest 10 day(s).
| Time | Temp. | Humidity | Pressure | Rain* | Wind** | Luminosity | Snow |
|---|---|---|---|---|---|---|---|
| 1777901221 | 16.11° C | 55% | 1015.8 hPa | 0 mm | - | - | - |
| 1777900918 | 16.11° C | 57% | 1015.6 hPa | 0 mm | - | - | - |
| 1777900615 | 15.56° C | 56% | 1015.9 hPa | 0 mm | - | - | - |
| 1777900312 | 15.56° C | 58% | 1015.8 hPa | 0 mm | - | - | - |
| 1777900009 | 15.56° C | 58% | 1015.7 hPa | 0 mm | - | - | - |
| 1777899705 | 15° C | 61% | 1015.8 hPa | 0 mm | - | - | - |
| 1777899403 | 15° C | 63% | 1015.6 hPa | 0 mm | - | - | - |
| 1777899101 | 14.44° C | 63% | 1015.9 hPa | 0 mm | - | - | - |
| 1777898798 | 13.89° C | 64% | 1015.7 hPa | 0 mm | - | - | - |
| 1777898495 | 14.44° C | 64% | 1015.8 hPa | 0 mm | - | - | - |
| 1777898193 | 14.44° C | 66% | 1015.8 hPa | 0 mm | - | - | - |
| 1777897890 | 13.89° C | 69% | 1015.9 hPa | 0 mm | - | - | - |
| 1777897586 | 13.89° C | 69% | 1015.9 hPa | 0 mm | - | - | - |
| 1777897282 | 13.33° C | 70% | 1016 hPa | 0 mm | - | - | - |
| 1777896978 | 13.33° C | 71% | 1016 hPa | 0 mm | - | - | - |
| 1777896675 | 13.33° C | 72% | 1016.1 hPa | 0 mm | - | - | - |
| 1777896372 | 12.78° C | 75% | 1015.9 hPa | 0 mm | - | - | - |
| 1777896070 | 12.78° C | 77% | 1016.1 hPa | 0 mm | - | - | - |
| 1777895768 | 12.22° C | 78% | 1016 hPa | 0 mm | - | - | - |
| 1777895464 | 11.67° C | 80% | 1016.3 hPa | 0 mm | - | - | - |
| 1777895162 | 10.56° C | 83% | 1016.2 hPa | 0 mm | - | - | - |
| 1777894859 | 10° C | 85% | 1016 hPa | 0 mm | - | - | - |
| 1777894556 | 10° C | 85% | 1016.3 hPa | 0 mm | - | - | - |
| 1777894254 | 10° C | 85% | 1016.4 hPa | 0 mm | - | - | - |
| 1777893950 | 10° C | 85% | 1016.3 hPa | 0 mm | - | - | - |
* Rain latest hour (hover to see other rain measurements)
** Current wind speed in m/s (hover to see current wind gust speed)